Theta_e
321 321 320 320 321 321 321 320 320 320 319 319 319 319 318 318 315 317 317 317 316 316 317 317 317 317 317 317 316 316 316 316 316 316 317 316 316 316 316 315 314 315
321 320 319 320 320 320 321 322 321 321 321 320 321 320 319 318 317 318 318 317 317 317 318 317 317 317 317 317 316 317 318 317 317 316 317 317 317 317 316 316 315 315
321 321 320 320 321 321 321 321 322 322 322 322 321 321 320 319 320 320 320 320 320 319 319 319 319 318 318 318 318 317 318 318 318 318 316 317 318 317 317 317 316 315
321 321 322 321 321 321 321 320 321 322 322 321 321 321 321 321 321 321 321 316 321 321 321 320 320 321 320 320 319 319 319 319 319 319 317 317 317 317 317 317 316 315
320 321 322 322 322 321 320 320 320 321 321 322 321 320 319 321 320 321 320 320 320 321 321 320 321 321 321 321 320 319 319 318 319 318 318 316 316 316 316 316 315 314
319 320 320 321 321 321 321 321 321 320 320 320 321 318 321 321 320 320 319 318 318 320 320 320 320 320 321 321 320 320 319 318 317 318 317 316 315 314 315 314 314 313
317 318 319 320 320 320 319 320 320 318 320 320 318 321 320 319 319 319 319 319 319 318 320 320 320 320 320 320 320 319 318 318 317 316 316 316 314 313 311 311 310 311
316 316 317 317 317 318 317 319 319 319 320 319 320 321 319 319 319 319 318 318 318 319 318 319 320 320 320 319 318 317 317 318 316 315 314 315 314 313 311 309 308 308
313 313 312 312 314 316 315 316 317 315 314 317 318 318 316 319 318 318 317 317 317 317 318 318 319 318 318 317 316 316 316 316 316 314 313 312 311 311 311 308 306 306
309 308 306 307 309 312 312 313 313 311 310 314 317 316 315 316 318 318 317 316 316 316 316 317 317 317 316 315 317 315 315 315 313 313 312 312 312 311 309 307 306 303
305 304 306 306 308 309 309 309 309 309 308 311 313 314 316 315 314 315 316 316 316 316 316 315 315 316 317 315 314 314 314 314 313 312 311 311 311 310 303 304 302 301
303 303 305 306 306 306 306 306 306 307 309 308 310 315 313 313 314 313 314 315 315 315 315 315 314 312 311 312 313 312 312 312 312 311 310 310 308 306 304 302 302 301
303 304 304 305 305 305 302 301 303 302 304 307 305 309 311 311 311 312 311 313 313 313 313 313 313 312 312 312 312 311 311 310 308 306 305 304 304 303 302 302 302 299
300 299 299 300 299 299 299 298 298 298 300 300 299 303 304 306 308 309 309 309 311 311 312 311 312 312 311 310 309 309 307 307 307 306 304 301 298 298 296 295 295 296
294 294 295 296 295 296 296 297 298 298 297 298 299 302 302 304 306 307 307 307 306 307 308 307 308 308 307 306 306 306 306 306 305 303 301 299 295 293 292 292 292 292
294 294 295 295 296 297 297 295 294 293 293 294 296 296 297 297 299 302 303 304 304 302 300 301 303 305 299 300 301 305 302 302 300 299 297 296 294 291 290 290 291 290
293 294 294 295 296 294 292 293 293 291 291 292 291 292 293 293 295 298 298 297 299 299 298 300 300 300 296 299 300 300 301 300 300 297 294 293 292 292 292 289 289 289
293 293 293 294 292 293 292 290 289 290 291 290 290 290 290 290 293 294 294 294 294 294 296 295 295 294 297 297 298 298 297 298 297 295 293 293 292 293 292 290 288 288
292 292 293 292 292 291 289 289 289 289 289 290 291 289 289 292 292 292 291 290 293 294 293 292 292 294 296 296 296 297 297 296 296 295 293 292 290 290 289 289 288 288
291 292 292 292 291 290 289 289 290 290 288 288 288 287 290 290 289 290 289 290 292 293 292 291 291 292 295 295 295 296 296 296 293 292 290 290 289 289 289 288 288 288
292 292 292 291 290 290 290 290 290 288 288 288 289 290 290 291 290 290 290 290 290 290 290 290 290 292 294 294 295 295 296 294 290 290 289 289 289 289 289 289 289 289
292 292 291 290 289 289 290 289 289 289 289 287 288 288 287 288 288 289 289 289 289 289 290 289 288 291 292 293 294 295 295 290 289 289 289 288 288 288 288 288 288 288
292 292 291 290 289 289 289 289 288 288 288 288 288 288 288 288 289 287 288 289 288 289 289 288 287 289 292 292 293 294 292 289 289 288 288 287 287 287 287 287 287 287
292 292 291 289 289 289 289 288 288 288 288 288 289 288 288 288 288 287 287 288 288 288 289 289 288 288 291 292 293 293 290 288 288 288 287 286 286 285 285 286 286 285
291 291 291 289 289 289 289 288 288 288 288 288 289 289 288 287 287 288 287 287 287 287 287 288 287 287 289 291 292 292 289 288 288 287 286 286 285 284 284 284 284 285
291 290 290 290 289 289 288 288 288 288 287 288 288 289 288 287 287 287 287 286 286 286 286 286 287 286 287 291 291 291 290 288 287 288 286 285 285 284 283 283 283 283
Wind_Speed
14 11 12 12 12 12 11 11 10 10 11 10 11 10 10 8 7 9 9 9 9 9 9 9 9 9 9 8 9 8 9 10 9 8 9 10 10 10 11 11 9 10
15 13 11 11 10 10 10 10 11 11 11 10 10 9 7 7 8 9 9 9 9 10 9 9 9 10 9 9 8 9 9 9 10 7 9 12 11 11 12 13 12 9
12 12 13 14 14 14 13 11 10 11 10 10 9 9 8 8 8 9 9 9 9 10 10 10 10 10 10 10 9 9 10 10 11 9 9 11 11 11 11 11 11 12
14 14 14 15 14 13 11 9 10 10 9 9 11 9 7 7 8 9 9 9 9 9 9 10 11 10 10 10 10 10 11 11 11 10 10 9 10 11 12 10 10 10
13 13 12 12 12 11 9 10 12 11 11 12 8 7 7 7 8 8 8 8 9 9 9 10 10 11 10 10 10 10 10 9 9 10 10 10 9 10 11 10 11 11
10 12 12 12 12 11 11 12 13 11 11 10 10 5 7 7 8 8 8 8 8 9 9 9 10 10 10 10 9 10 9 9 9 10 11 12 9 8 8 9 10 10
12 12 13 12 11 10 11 12 11 10 10 9 5 8 7 7 8 9 8 9 9 9 10 10 10 10 10 10 10 10 9 9 9 10 11 10 10 9 7 7 8 10
11 9 10 9 10 10 11 11 10 10 9 7 9 9 7 8 9 9 8 9 9 10 10 11 11 10 9 9 10 10 10 9 9 10 10 11 10 11 9 8 8 8
9 8 8 8 10 10 10 11 10 8 7 9 9 8 7 9 9 9 9 9 10 10 11 10 11 10 8 8 9 10 10 10 10 10 10 10 9 9 10 9 7 8
8 8 7 8 9 9 10 10 9 7 7 8 9 7 9 8 9 10 9 10 11 11 11 10 11 11 9 8 9 9 9 9 8 9 10 10 10 9 7 7 8 6
8 7 8 9 11 9 10 9 8 8 8 10 9 9 9 8 8 8 9 10 11 10 11 10 9 9 11 11 9 8 9 9 9 9 9 9 8 8 7 6 7 8
8 8 10 10 10 8 9 8 8 7 8 7 8 9 8 8 9 8 9 9 9 10 10 11 10 8 6 7 9 9 9 8 8 8 8 8 7 6 7 7 7 8
9 9 8 8 8 7 5 5 6 5 6 7 6 7 7 8 8 9 9 9 9 8 8 7 7 8 8 8 7 7 7 8 7 5 5 6 6 6 6 6 7 7
7 5 5 5 4 4 4 4 4 4 5 4 4 6 6 6 7 8 7 7 7 7 7 7 7 8 7 6 6 6 6 6 7 8 7 5 5 6 5 5 5 6
4 4 3 3 3 3 4 4 5 5 5 5 5 6 6 6 6 6 7 7 6 6 6 6 7 6 5 6 5 5 6 7 6 6 6 6 5 4 4 4 4 5
4 4 5 4 5 6 6 5 5 5 6 5 6 6 5 5 5 6 6 6 6 6 5 4 5 5 7 11 9 7 5 5 5 6 6 6 6 5 4 4 4 4
5 5 5 6 6 5 5 6 5 5 5 4 4 4 5 5 6 6 6 5 6 5 5 5 5 5 9 10 11 11 7 6 7 6 5 5 5 6 6 5 4 4
6 6 6 5 5 6 5 5 4 4 4 4 4 4 4 3 5 5 5 5 5 5 5 5 5 7 10 10 10 11 9 6 5 6 6 6 6 6 5 4 4 3
6 6 6 6 6 5 5 5 4 4 4 4 4 4 4 5 5 5 4 4 6 6 5 5 5 7 10 10 10 11 11 9 5 6 7 5 4 3 4 4 5 5
7 7 7 6 6 6 5 5 5 5 4 4 4 4 4 4 4 5 5 5 5 6 6 5 5 7 9 10 11 12 11 8 4 4 4 4 5 6 6 6 6 6
7 7 7 7 7 7 6 6 5 4 4 4 5 6 6 6 6 5 5 5 5 5 5 5 5 7 8 9 9 9 10 7 5 5 5 4 5 5 5 6 6 6
8 8 7 7 7 6 7 6 6 7 7 5 4 4 3 3 3 4 6 6 5 5 5 5 4 6 7 7 8 8 10 5 5 6 6 5 5 4 4 5 5 6
9 9 9 8 8 8 7 7 7 7 5 5 5 5 5 5 5 4 5 6 5 5 5 4 3 4 6 8 9 11 8 5 6 5 5 5 5 5 4 4 4 5
9 9 10 9 8 9 8 7 7 6 6 6 6 6 5 5 4 3 3 4 5 5 5 5 4 5 8 9 12 12 9 7 5 5 5 5 5 3 3 3 3 6
10 9 9 9 9 9 9 9 9 8 6 6 6 6 5 4 4 4 3 2 2 3 4 4 4 4 5 8 11 12 9 6 6 6 6 4 5 4 3 3 2 2
10 10 10 10 10 8 7 7 5 5 6 6 5 5 5 5 4 4 5 3 2 2 2 2 3 2 2 7 10 11 9 7 6 7 6 6 4 5 4 3 3 3
Wind_Direction
211 207 210 210 216 217 213 211 211 210 213 212 215 217 212 208 185 197 205 207 212 216 216 215 212 214 215 210 207 207 214 218 221 213 209 211 220 221 222 222 220 218
210 207 209 213 220 219 219 212 212 211 217 212 216 214 206 190 194 191 199 203 206 216 214 214 214 214 212 211 206 207 216 217 223 209 211 213 220 218 223 222 224 224
210 207 209 211 216 216 214 212 213 216 217 217 215 210 205 191 192 192 197 198 206 211 212 214 216 215 214 213 209 211 217 219 222 213 212 217 218 219 221 222 223 219
211 208 210 215 217 219 212 208 216 219 218 219 217 210 198 191 187 193 198 196 204 208 209 212 216 216 216 216 213 216 218 220 220 214 216 219 219 219 222 222 224 225
209 211 214 217 219 218 208 211 217 217 218 223 219 201 193 187 187 196 195 198 203 210 209 212 214 216 215 216 213 218 217 220 217 216 218 222 220 218 223 220 222 223
212 212 213 215 215 209 210 214 219 216 219 222 218 190 199 191 193 199 195 197 203 210 215 215 214 216 215 214 211 215 215 216 215 213 219 222 223 217 220 215 220 224
211 209 213 214 215 209 211 216 220 216 217 219 196 209 197 190 200 202 200 203 207 210 216 217 216 217 215 214 214 217 215 214 214 214 219 223 222 224 218 215 216 222
215 211 213 211 213 213 213 217 219 215 213 204 208 214 192 196 203 203 203 204 209 215 218 220 220 219 215 214 216 217 218 213 215 214 218 224 220 222 218 217 218 223
213 212 204 205 209 213 215 216 218 213 198 205 210 212 194 198 203 202 203 204 211 217 219 220 221 221 219 215 217 218 218 217 215 213 215 218 216 218 218 208 203 211
211 208 196 203 208 211 214 214 212 206 195 204 208 204 203 206 203 203 202 206 214 218 221 223 221 220 220 218 218 218 220 218 213 213 213 216 218 221 221 209 212 213
215 202 203 208 211 208 213 208 205 202 196 203 204 208 210 201 205 207 209 211 215 216 219 220 220 217 219 216 214 212 212 214 214 212 215 218 220 222 213 192 187 196
214 206 212 214 213 214 212 208 204 204 203 207 203 209 204 204 202 204 209 216 217 219 216 215 216 216 212 213 212 212 213 215 216 215 214 215 214 214 201 186 184 190
211 212 212 214 214 216 210 205 206 204 200 206 197 205 204 205 207 207 210 214 216 212 211 208 209 212 217 219 217 214 210 211 213 208 209 209 210 200 192 198 203 197
215 212 213 219 218 209 200 198 190 190 199 195 181 199 206 205 205 207 210 206 213 211 213 211 215 219 215 215 217 212 204 206 205 206 206 200 199 203 197 190 188 188
204 206 198 195 188 187 190 192 192 194 193 193 193 201 203 209 208 206 207 211 215 216 217 214 209 210 204 203 201 205 203 208 206 199 194 196 192 176 163 169 175 180
187 183 184 184 187 193 195 188 184 182 180 185 197 202 205 207 207 206 203 203 205 214 214 200 201 202 200 197 196 195 187 180 167 179 186 186 180 172 172 185 184 178
181 186 176 186 184 169 164 159 158 156 156 163 168 175 188 194 190 193 196 196 194 193 192 195 195 189 184 184 186 179 173 177 181 181 172 168 171 176 187 188 189 183
188 180 180 180 162 163 155 149 142 143 147 153 148 153 157 150 156 178 182 171 168 174 181 180 179 177 170 175 175 173 168 168 164 161 166 173 181 189 190 173 164 159
180 180 179 172 172 154 148 138 138 139 145 149 172 177 147 159 169 156 172 166 154 159 173 179 182 187 172 170 172 171 170 165 171 168 171 180 171 163 152 151 156 164
177 177 176 174 162 154 148 147 149 167 172 166 147 153 166 165 160 162 159 168 172 169 173 181 180 194 184 181 178 176 175 164 148 146 142 149 163 163 158 158 166 170
175 175 172 168 165 161 159 163 165 162 169 177 171 174 175 176 172 169 178 173 172 165 162 174 189 186 186 180 173 166 163 144 129 127 130 137 150 155 149 156 168 169
174 172 169 167 166 165 167 174 180 182 184 183 171 173 171 151 158 156 166 171 169 160 155 172 194 190 178 174 161 155 140 124 132 132 134 136 127 122 141 162 161 155
180 174 173 174 171 173 180 181 181 186 184 170 164 174 166 174 172 171 170 162 164 167 160 164 180 199 181 165 155 144 130 127 127 125 122 118 124 144 152 156 152 161
183 179 178 177 178 187 185 182 182 182 180 175 171 169 176 179 164 148 161 165 165 172 172 162 180 185 172 162 153 151 144 141 136 124 125 130 136 136 139 136 153 168
179 179 178 179 188 193 184 183 185 182 172 174 178 169 172 159 152 146 138 131 178 173 169 158 163 183 175 159 154 148 140 135 135 134 140 154 144 133 109 111 108 148
180 182 183 186 192 185 185 185 170 166 168 170 173 168 158 153 146 143 148 146 119 122 120 121 139 128 153 157 156 152 140 135 141 143 153 148 142 138 133 117 137 146